LINK

Last updated on Wed Sep 26 2018 03:57:47 GMT+0100 (British Summer Time)

1 42714U 98067LV 18265.92001965 .06744984 12188-4 74906-3 0 9997 2 42714 51.6396 192.6696 0007557 179.7176 180.2695 16.36256502 77350

Satellite not in orbit